カタログに戻る

STARLINK-34077

運用中通信VLEO
NORAD 64009·PAYLOAD·🇺🇸 United States

打ち上げ May 14, 2025 から Cape Canaveral Space Force Station

Loading…

次のパス (今後24時間)

TLE

最新Source: CelesTrak SupGP

元期: Sep 15, 2026, 02:44 UTC

1 64009C 25101R   26258.11437500  .00017103  00000+0  61948-3 0  2582
2 64009  43.0036   7.9514 0001259 267.5674 250.9342 15.27570666    18

AllMySatでSTARLINK-34077をリアルタイム追跡

Download on the App Store